Zurück zum Katalog

SL-16 DEB

AktivLEO
NORAD 22437·DEBRIS·🇷🇺 Russia

Gestartet Dec 25, 1992 von Baikonur Cosmodrome

Loading…

Nächste Überflüge (nächste 24 Stunden)

TLE

AktuellSource: Space-Track

Epoche: Sep 13, 2026, 20:19 UTC

1 22437U 92093EE  26256.84664920  .00001448  00000-0  34089-3 0  9995
2 22437  71.3293 294.4044 0032877  36.7830 323.5563 14.55672635761810

Verfolge SL-16 DEB in Echtzeit mit AllMySat

Download on the App Store